Year,Month,Day,Hour,Minute,Value (Times are PST for temperature in C)
2015,09,15,00,00,7.30
2015,09,15,00,01,7.30
2015,09,15,00,02,7.30
2015,09,15,00,03,7.30
2015,09,15,00,04,7.30
2015,09,15,00,05,7.30
2015,09,15,00,06,7.30
2015,09,15,00,07,7.30
2015,09,15,00,08,7.30
2015,09,15,00,09,7.30
2015,09,15,00,10,7.30
2015,09,15,00,11,7.30
2015,09,15,00,12,7.30
2015,09,15,00,13,7.30
2015,09,15,00,14,7.40
2015,09,15,00,15,7.40
2015,09,15,00,16,7.40
2015,09,15,00,17,7.40
2015,09,15,00,18,7.30
2015,09,15,00,19,7.30
2015,09,15,00,20,7.30
2015,09,15,00,21,7.30
2015,09,15,00,22,7.30
2015,09,15,00,23,7.30
2015,09,15,00,24,7.30
2015,09,15,00,25,7.30
2015,09,15,00,26,7.30
2015,09,15,00,27,7.30
2015,09,15,00,28,7.30
2015,09,15,00,29,7.30
2015,09,15,00,30,7.30
2015,09,15,00,31,7.30
2015,09,15,00,32,7.30
2015,09,15,00,33,7.30
2015,09,15,00,34,7.30
2015,09,15,00,35,7.30
2015,09,15,00,36,7.30
2015,09,15,00,37,7.30
2015,09,15,00,38,7.30
2015,09,15,00,39,7.30
2015,09,15,00,40,7.30
2015,09,15,00,41,7.30
2015,09,15,00,42,7.30
2015,09,15,00,43,7.30
2015,09,15,00,44,7.30
2015,09,15,00,45,7.20
2015,09,15,00,46,7.20
2015,09,15,00,47,7.20
2015,09,15,00,48,7.20
2015,09,15,00,49,7.20
2015,09,15,00,50,7.20
2015,09,15,00,51,7.20
2015,09,15,00,52,7.20
2015,09,15,00,53,7.20
2015,09,15,00,54,7.20
2015,09,15,00,55,7.20
2015,09,15,00,56,7.20
2015,09,15,00,57,7.20
2015,09,15,00,58,7.20
2015,09,15,00,59,7.10
2015,09,15,01,00,7.10
2015,09,15,01,01,7.10
2015,09,15,01,02,7.10
2015,09,15,01,03,7.10
2015,09,15,01,04,7.10
2015,09,15,01,05,7.10
2015,09,15,01,06,7.10
2015,09,15,01,07,7.10
2015,09,15,01,08,7.10
2015,09,15,01,09,7.00
2015,09,15,01,10,7.00
2015,09,15,01,11,7.00
2015,09,15,01,12,7.00
2015,09,15,01,13,7.10
2015,09,15,01,14,7.10
2015,09,15,01,15,7.10
2015,09,15,01,16,7.10
2015,09,15,01,17,7.10
2015,09,15,01,18,7.10
2015,09,15,01,19,7.10
2015,09,15,01,20,7.10
2015,09,15,01,21,7.10
2015,09,15,01,22,7.10
2015,09,15,01,23,7.10
2015,09,15,01,24,7.20
2015,09,15,01,25,7.20
2015,09,15,01,26,7.20
2015,09,15,01,27,7.20
2015,09,15,01,28,7.20
2015,09,15,01,29,7.20
2015,09,15,01,30,7.20
2015,09,15,01,31,7.20
2015,09,15,01,32,7.20
2015,09,15,01,33,7.20
2015,09,15,01,34,7.20
2015,09,15,01,35,7.20
2015,09,15,01,36,7.20
2015,09,15,01,37,7.20
2015,09,15,01,38,7.20
2015,09,15,01,39,7.20
2015,09,15,01,40,7.20
2015,09,15,01,41,7.20
2015,09,15,01,42,7.20
2015,09,15,01,43,7.30
2015,09,15,01,44,7.30
2015,09,15,01,45,7.30
2015,09,15,01,46,7.20
2015,09,15,01,47,7.30
2015,09,15,01,48,7.20
2015,09,15,01,49,7.20
2015,09,15,01,50,7.20
2015,09,15,01,51,7.20
2015,09,15,01,52,7.20
2015,09,15,01,53,7.30
2015,09,15,01,54,7.20
2015,09,15,01,55,7.20
2015,09,15,01,56,7.20
2015,09,15,01,57,7.20
2015,09,15,01,58,7.20
2015,09,15,01,59,7.20
2015,09,15,02,00,7.20
2015,09,15,02,01,7.20
2015,09,15,02,02,7.20
2015,09,15,02,03,7.20
2015,09,15,02,04,7.20
2015,09,15,02,05,7.20
2015,09,15,02,06,7.20
2015,09,15,02,07,7.20
2015,09,15,02,08,7.20
2015,09,15,02,09,7.20
2015,09,15,02,10,7.20
2015,09,15,02,11,7.20
2015,09,15,02,12,7.20
2015,09,15,02,13,7.20
2015,09,15,02,14,7.20
2015,09,15,02,15,7.20
2015,09,15,02,16,7.20
2015,09,15,02,17,7.20
2015,09,15,02,18,7.20
2015,09,15,02,19,7.20
2015,09,15,02,20,7.20
2015,09,15,02,21,7.20
2015,09,15,02,22,7.20
2015,09,15,02,23,7.20
2015,09,15,02,24,7.20
2015,09,15,02,25,7.20
2015,09,15,02,26,7.20
2015,09,15,02,27,7.20
2015,09,15,02,28,7.20
2015,09,15,02,29,7.10
2015,09,15,02,30,7.10
2015,09,15,02,31,7.10
2015,09,15,02,32,7.10
2015,09,15,02,33,7.10
2015,09,15,02,34,7.10
2015,09,15,02,35,7.10
2015,09,15,02,36,7.10
2015,09,15,02,37,7.10
2015,09,15,02,38,7.10
2015,09,15,02,39,7.10
2015,09,15,02,40,7.10
2015,09,15,02,41,7.10
2015,09,15,02,42,7.10
2015,09,15,02,43,7.10
2015,09,15,02,44,7.10
2015,09,15,02,45,7.10
2015,09,15,02,46,7.10
2015,09,15,02,47,7.10
2015,09,15,02,48,7.10
2015,09,15,02,49,7.10
2015,09,15,02,50,7.10
2015,09,15,02,51,7.10
2015,09,15,02,52,7.10
2015,09,15,02,53,7.10
2015,09,15,02,54,7.10
2015,09,15,02,55,7.10
2015,09,15,02,56,7.10
2015,09,15,02,57,7.10
2015,09,15,02,58,7.10
2015,09,15,02,59,7.10
2015,09,15,03,00,7.10
2015,09,15,03,01,7.10
2015,09,15,03,02,7.10
2015,09,15,03,03,7.10
2015,09,15,03,04,7.10
2015,09,15,03,05,7.10
2015,09,15,03,06,7.10
2015,09,15,03,07,7.10
2015,09,15,03,08,7.10
2015,09,15,03,09,7.10
2015,09,15,03,10,7.10
2015,09,15,03,11,7.20
2015,09,15,03,12,7.20
2015,09,15,03,13,7.20
2015,09,15,03,14,7.20
2015,09,15,03,15,7.20
2015,09,15,03,16,7.20
2015,09,15,03,17,7.20
2015,09,15,03,18,7.20
2015,09,15,03,19,7.20
2015,09,15,03,20,7.20
2015,09,15,03,21,7.20
2015,09,15,03,22,7.20
2015,09,15,03,23,7.20
2015,09,15,03,24,7.20
2015,09,15,03,25,7.20
2015,09,15,03,26,7.20
2015,09,15,03,27,7.20
2015,09,15,03,28,7.20
2015,09,15,03,29,7.20
2015,09,15,03,30,7.20
2015,09,15,03,31,7.20
2015,09,15,03,32,7.20
2015,09,15,03,33,7.20
2015,09,15,03,34,7.20
2015,09,15,03,35,7.20
2015,09,15,03,36,7.20
2015,09,15,03,37,7.30
2015,09,15,03,38,7.30
2015,09,15,03,39,7.30
2015,09,15,03,40,7.30
2015,09,15,03,41,7.30
2015,09,15,03,42,7.30
2015,09,15,03,43,7.30
2015,09,15,03,44,7.30
2015,09,15,03,45,7.30
2015,09,15,03,46,7.30
2015,09,15,03,47,7.30
2015,09,15,03,48,7.30
2015,09,15,03,49,7.30
2015,09,15,03,50,7.30
2015,09,15,03,51,7.20
2015,09,15,03,52,7.20
2015,09,15,03,53,7.20
2015,09,15,03,54,7.20
2015,09,15,03,55,7.20
2015,09,15,03,56,7.20
2015,09,15,03,57,7.20
2015,09,15,03,58,7.20
2015,09,15,03,59,7.20
2015,09,15,04,00,7.20
2015,09,15,04,01,7.20
2015,09,15,04,02,7.20
2015,09,15,04,03,7.10
2015,09,15,04,04,7.10
2015,09,15,04,05,7.10
2015,09,15,04,06,7.10
2015,09,15,04,07,7.10
2015,09,15,04,08,7.10
2015,09,15,04,09,7.10
2015,09,15,04,10,7.10
2015,09,15,04,11,7.10
2015,09,15,04,12,7.10
2015,09,15,04,13,7.10
2015,09,15,04,14,7.10
2015,09,15,04,15,7.10
2015,09,15,04,16,7.10
2015,09,15,04,17,7.10
2015,09,15,04,18,7.10
2015,09,15,04,19,7.10
2015,09,15,04,20,7.10
2015,09,15,04,21,7.10
2015,09,15,04,22,7.10
2015,09,15,04,23,7.10
2015,09,15,04,24,7.10
2015,09,15,04,25,7.10
2015,09,15,04,26,7.10
2015,09,15,04,27,7.10
2015,09,15,04,28,7.10
2015,09,15,04,29,7.00
2015,09,15,04,30,7.00
2015,09,15,04,31,7.00
2015,09,15,04,32,7.00
2015,09,15,04,33,7.00
2015,09,15,04,34,7.00
2015,09,15,04,35,7.00
2015,09,15,04,36,7.00
2015,09,15,04,37,7.00
2015,09,15,04,38,7.00
2015,09,15,04,39,7.00
2015,09,15,04,40,7.00
2015,09,15,04,41,7.00
2015,09,15,04,42,7.00
2015,09,15,04,43,7.00
2015,09,15,04,44,7.00
2015,09,15,04,45,7.00
2015,09,15,04,46,7.00
2015,09,15,04,47,7.00
2015,09,15,04,48,7.00
2015,09,15,04,49,7.00
2015,09,15,04,50,6.90
2015,09,15,04,51,6.90
2015,09,15,04,52,6.90
2015,09,15,04,53,6.90
2015,09,15,04,54,6.90
2015,09,15,04,55,6.90
2015,09,15,04,56,6.90
2015,09,15,04,57,6.90
2015,09,15,04,58,6.90
2015,09,15,04,59,6.90
2015,09,15,05,00,6.90
2015,09,15,05,01,6.90
2015,09,15,05,02,6.90
2015,09,15,05,03,6.90
2015,09,15,05,04,6.90
2015,09,15,05,05,6.90
2015,09,15,05,06,6.90
2015,09,15,05,07,6.90
2015,09,15,05,08,6.90
2015,09,15,05,09,6.90
2015,09,15,05,10,6.90
2015,09,15,05,11,6.90
2015,09,15,05,12,6.80
2015,09,15,05,13,6.90
2015,09,15,05,14,6.90
2015,09,15,05,15,6.80
2015,09,15,05,16,6.80
2015,09,15,05,17,6.80
2015,09,15,05,18,6.80
2015,09,15,05,19,6.80
2015,09,15,05,20,6.80
2015,09,15,05,21,6.80
2015,09,15,05,22,6.80
2015,09,15,05,23,6.80
2015,09,15,05,24,6.80
2015,09,15,05,25,6.80
2015,09,15,05,26,6.80
2015,09,15,05,27,6.80
2015,09,15,05,28,6.80
2015,09,15,05,29,6.80
2015,09,15,05,30,6.80
2015,09,15,05,31,6.80
2015,09,15,05,32,6.80
2015,09,15,05,33,6.80
2015,09,15,05,34,6.80
2015,09,15,05,35,6.80
2015,09,15,05,36,6.80
2015,09,15,05,37,6.80
2015,09,15,05,38,6.80
2015,09,15,05,39,6.80
2015,09,15,05,40,6.80
2015,09,15,05,41,6.80
2015,09,15,05,42,6.80
2015,09,15,05,43,6.80
2015,09,15,05,44,6.80
2015,09,15,05,45,6.80
2015,09,15,05,46,6.80
2015,09,15,05,47,6.80
2015,09,15,05,48,6.80
2015,09,15,05,49,6.80
2015,09,15,05,50,6.80
2015,09,15,05,51,6.80
2015,09,15,05,52,6.80
2015,09,15,05,53,6.80
2015,09,15,05,54,6.80
2015,09,15,05,55,6.80
2015,09,15,05,56,6.80
2015,09,15,05,57,6.80
2015,09,15,05,58,6.80
2015,09,15,05,59,6.80
2015,09,15,06,00,6.80
2015,09,15,06,01,6.80
2015,09,15,06,02,6.80
2015,09,15,06,03,6.80
2015,09,15,06,04,6.80
2015,09,15,06,05,6.80
2015,09,15,06,06,6.80
2015,09,15,06,07,6.80
2015,09,15,06,08,6.80
2015,09,15,06,09,6.80
2015,09,15,06,10,6.80
2015,09,15,06,11,6.80
2015,09,15,06,12,6.80
2015,09,15,06,13,6.80
2015,09,15,06,14,6.80
2015,09,15,06,15,6.80
2015,09,15,06,16,6.80
2015,09,15,06,17,6.80
2015,09,15,06,18,6.70
2015,09,15,06,19,6.70
2015,09,15,06,20,6.70
2015,09,15,06,21,6.70
2015,09,15,06,22,6.70
2015,09,15,06,23,6.70
2015,09,15,06,24,6.60
2015,09,15,06,25,6.60
2015,09,15,06,26,6.60
2015,09,15,06,27,6.60
2015,09,15,06,28,6.60
2015,09,15,06,29,6.60
2015,09,15,06,30,6.60
2015,09,15,06,31,6.60
2015,09,15,06,32,6.60
2015,09,15,06,33,6.60
2015,09,15,06,34,6.60
2015,09,15,06,35,6.60
2015,09,15,06,36,6.60
2015,09,15,06,37,6.60
2015,09,15,06,38,6.60
2015,09,15,06,39,6.60
2015,09,15,06,40,6.60
2015,09,15,06,41,6.60
2015,09,15,06,42,6.60
2015,09,15,06,43,6.60
2015,09,15,06,44,6.60
2015,09,15,06,45,6.60
2015,09,15,06,46,6.60
2015,09,15,06,47,6.60
2015,09,15,06,48,6.60
2015,09,15,06,49,6.60
2015,09,15,06,50,6.60
2015,09,15,06,51,6.70
2015,09,15,06,52,6.70
2015,09,15,06,53,6.70
2015,09,15,06,54,6.70
2015,09,15,06,55,6.70
2015,09,15,06,56,6.70
2015,09,15,06,57,6.70
2015,09,15,06,58,6.70
2015,09,15,06,59,6.70
2015,09,15,07,00,6.60
2015,09,15,07,01,6.60
2015,09,15,07,02,6.60
2015,09,15,07,03,6.60
2015,09,15,07,04,6.70
2015,09,15,07,05,6.70
2015,09,15,07,06,6.70
2015,09,15,07,07,6.70
2015,09,15,07,08,6.70
2015,09,15,07,09,6.70
2015,09,15,07,10,6.70
2015,09,15,07,11,6.60
2015,09,15,07,12,6.60
2015,09,15,07,13,6.60
2015,09,15,07,14,6.60
2015,09,15,07,15,6.60
2015,09,15,07,16,6.60
2015,09,15,07,17,6.60
2015,09,15,07,18,6.60
2015,09,15,07,19,6.60
2015,09,15,07,20,6.60
2015,09,15,07,21,6.60
2015,09,15,07,22,6.60
2015,09,15,07,23,6.60
2015,09,15,07,24,6.60
2015,09,15,07,25,6.60
2015,09,15,07,26,6.50
2015,09,15,07,27,6.50
2015,09,15,07,28,6.50
2015,09,15,07,29,6.50
2015,09,15,07,30,6.50
2015,09,15,07,31,6.50
2015,09,15,07,32,6.50
2015,09,15,07,33,6.50
2015,09,15,07,34,6.50
2015,09,15,07,35,6.50
2015,09,15,07,36,6.50
2015,09,15,07,37,6.50
2015,09,15,07,38,6.50
2015,09,15,07,39,6.50
2015,09,15,07,40,6.50
2015,09,15,07,41,6.40
2015,09,15,07,42,6.40
2015,09,15,07,43,6.40
2015,09,15,07,44,6.40
2015,09,15,07,45,6.40
2015,09,15,07,46,6.40
2015,09,15,07,47,6.40
2015,09,15,07,48,6.40
2015,09,15,07,49,6.40
2015,09,15,07,50,6.40
2015,09,15,07,51,6.40
2015,09,15,07,52,6.40
2015,09,15,07,53,6.40
2015,09,15,07,54,6.40
2015,09,15,07,55,6.40
2015,09,15,07,56,6.40
2015,09,15,07,57,6.40
2015,09,15,07,58,6.40
2015,09,15,07,59,6.40
2015,09,15,08,00,6.40
2015,09,15,08,01,6.40
2015,09,15,08,02,6.30
2015,09,15,08,03,6.30
2015,09,15,08,04,6.30
2015,09,15,08,05,6.30
2015,09,15,08,06,6.30
2015,09,15,08,07,6.30
2015,09,15,08,08,6.30
2015,09,15,08,09,6.30
2015,09,15,08,10,6.30
2015,09,15,08,11,6.30
2015,09,15,08,12,6.30
2015,09,15,08,13,6.30
2015,09,15,08,14,6.30
2015,09,15,08,15,6.30
2015,09,15,08,16,6.30
2015,09,15,08,17,6.30
2015,09,15,08,18,6.30
2015,09,15,08,19,6.30
2015,09,15,08,20,6.30
2015,09,15,08,21,6.30
2015,09,15,08,22,6.30
2015,09,15,08,23,6.30
2015,09,15,08,24,6.40
2015,09,15,08,25,6.40
2015,09,15,08,26,6.40
2015,09,15,08,27,6.40
2015,09,15,08,28,6.40
2015,09,15,08,29,6.40
2015,09,15,08,30,6.50
2015,09,15,08,31,6.50
2015,09,15,08,32,6.50
2015,09,15,08,33,6.60
2015,09,15,08,34,6.60
2015,09,15,08,35,6.60
2015,09,15,08,36,6.60
2015,09,15,08,37,6.70
2015,09,15,08,38,6.70
2015,09,15,08,39,6.70
2015,09,15,08,40,6.70
2015,09,15,08,41,6.70
2015,09,15,08,42,6.80
2015,09,15,08,43,6.80
2015,09,15,08,44,6.80
2015,09,15,08,45,6.80
2015,09,15,08,46,6.90
2015,09,15,08,47,6.90
2015,09,15,08,48,6.90
2015,09,15,08,49,7.00
2015,09,15,08,50,7.00
2015,09,15,08,51,7.10
2015,09,15,08,52,7.10
2015,09,15,08,53,7.20
2015,09,15,08,54,7.20
2015,09,15,08,55,7.30
2015,09,15,08,56,7.40
2015,09,15,08,57,7.50
2015,09,15,08,58,7.50
2015,09,15,08,59,7.50
2015,09,15,09,00,7.50
2015,09,15,09,01,7.50
2015,09,15,09,02,7.40
2015,09,15,09,03,7.40
2015,09,15,09,04,7.40
2015,09,15,09,05,7.40
2015,09,15,09,06,7.30
2015,09,15,09,07,7.30
2015,09,15,09,08,7.30
2015,09,15,09,09,7.40
2015,09,15,09,10,7.40
2015,09,15,09,11,7.40
2015,09,15,09,12,7.30
2015,09,15,09,13,7.30
2015,09,15,09,14,7.30
2015,09,15,09,15,7.30
2015,09,15,09,16,7.30
2015,09,15,09,17,7.30
2015,09,15,09,18,7.30
2015,09,15,09,19,7.30
2015,09,15,09,20,7.30
2015,09,15,09,21,7.30
2015,09,15,09,22,7.30
2015,09,15,09,23,7.30
2015,09,15,09,24,7.30
2015,09,15,09,25,7.40
2015,09,15,09,26,7.40
2015,09,15,09,27,7.40
2015,09,15,09,28,7.40
2015,09,15,09,29,7.40
2015,09,15,09,30,7.40
2015,09,15,09,31,7.40
2015,09,15,09,32,7.40
2015,09,15,09,33,7.40
2015,09,15,09,34,7.40
2015,09,15,09,35,7.40
2015,09,15,09,36,7.40
2015,09,15,09,37,7.50
2015,09,15,09,38,7.50
2015,09,15,09,39,7.50
2015,09,15,09,40,7.50
2015,09,15,09,41,7.60
2015,09,15,09,42,7.60
2015,09,15,09,43,7.60
2015,09,15,09,44,7.60
2015,09,15,09,45,7.60
2015,09,15,09,46,7.60
2015,09,15,09,47,7.70
2015,09,15,09,48,7.70
2015,09,15,09,49,7.70
2015,09,15,09,50,7.70
2015,09,15,09,51,7.70
2015,09,15,09,52,7.80
2015,09,15,09,53,7.80
2015,09,15,09,54,7.90
2015,09,15,09,55,7.90
2015,09,15,09,56,7.90
2015,09,15,09,57,8.00
2015,09,15,09,58,8.10
2015,09,15,09,59,8.20
2015,09,15,10,00,8.20
2015,09,15,10,01,8.20
2015,09,15,10,02,8.30
2015,09,15,10,03,8.30
2015,09,15,10,04,8.30
2015,09,15,10,05,8.30
2015,09,15,10,06,8.40
2015,09,15,10,07,8.40
2015,09,15,10,08,8.50
2015,09,15,10,09,8.50
2015,09,15,10,10,8.60
2015,09,15,10,11,8.60
2015,09,15,10,12,8.70
2015,09,15,10,13,8.60
2015,09,15,10,14,8.60
2015,09,15,10,15,8.70
2015,09,15,10,16,8.70
2015,09,15,10,17,8.70
2015,09,15,10,18,8.70
2015,09,15,10,19,8.70
2015,09,15,10,20,8.70
2015,09,15,10,21,8.70
2015,09,15,10,22,8.70
2015,09,15,10,23,8.70
2015,09,15,10,24,8.70
2015,09,15,10,25,8.70
2015,09,15,10,26,8.70
2015,09,15,10,27,8.80
2015,09,15,10,28,8.80
2015,09,15,10,29,8.90
2015,09,15,10,30,9.00
2015,09,15,10,31,9.10
2015,09,15,10,32,9.10
2015,09,15,10,33,9.20
2015,09,15,10,34,9.20
2015,09,15,10,35,9.30
2015,09,15,10,36,9.30
2015,09,15,10,37,9.30
2015,09,15,10,38,9.30
2015,09,15,10,39,9.30
2015,09,15,10,40,9.40
2015,09,15,10,41,9.40
2015,09,15,10,42,9.40
2015,09,15,10,43,9.40
2015,09,15,10,44,9.50
2015,09,15,10,45,9.50
2015,09,15,10,46,9.60
2015,09,15,10,47,9.60
2015,09,15,10,48,9.70
2015,09,15,10,49,9.80
2015,09,15,10,50,9.80
2015,09,15,10,51,9.90
2015,09,15,10,52,9.90
2015,09,15,10,53,9.90
2015,09,15,10,54,10.00
2015,09,15,10,55,10.10
2015,09,15,10,56,10.20
2015,09,15,10,57,10.40
2015,09,15,10,58,10.60
2015,09,15,10,59,10.70
2015,09,15,11,00,10.80
2015,09,15,11,01,10.90
2015,09,15,11,02,11.00
2015,09,15,11,03,11.00
2015,09,15,11,04,11.10
2015,09,15,11,05,11.10
2015,09,15,11,06,11.10
2015,09,15,11,07,11.20
2015,09,15,11,08,11.20
2015,09,15,11,09,11.20
2015,09,15,11,10,11.20
2015,09,15,11,11,11.30
2015,09,15,11,12,11.30
2015,09,15,11,13,11.40
2015,09,15,11,14,11.40
2015,09,15,11,15,11.40
2015,09,15,11,16,11.50
2015,09,15,11,17,11.60
2015,09,15,11,18,11.60
2015,09,15,11,19,11.70
2015,09,15,11,20,11.80
2015,09,15,11,21,11.90
2015,09,15,11,22,11.90
2015,09,15,11,23,12.00
2015,09,15,11,24,12.10
2015,09,15,11,25,12.10
2015,09,15,11,26,12.10
2015,09,15,11,27,12.10
2015,09,15,11,28,12.10
2015,09,15,11,29,12.10
2015,09,15,11,30,12.20
2015,09,15,11,31,12.20
2015,09,15,11,32,12.30
2015,09,15,11,33,12.40
2015,09,15,11,34,12.60
2015,09,15,11,35,12.70
2015,09,15,11,36,12.70
2015,09,15,11,37,12.80
2015,09,15,11,38,12.80
2015,09,15,11,39,12.90
2015,09,15,11,40,12.90
2015,09,15,11,41,12.90
2015,09,15,11,42,12.90
2015,09,15,11,43,12.90
2015,09,15,11,44,12.90
2015,09,15,11,45,12.90
2015,09,15,11,46,13.00
2015,09,15,11,47,13.00
2015,09,15,11,48,13.10
2015,09,15,11,49,13.10
2015,09,15,11,50,13.10
2015,09,15,11,51,13.10
2015,09,15,11,52,13.10
2015,09,15,11,53,13.10
2015,09,15,11,54,13.10
2015,09,15,11,55,13.10
2015,09,15,11,56,13.20
2015,09,15,11,57,13.20
2015,09,15,11,58,13.30
2015,09,15,11,59,13.40
2015,09,15,12,00,13.50
2015,09,15,12,01,13.60
2015,09,15,12,02,13.60
2015,09,15,12,03,13.70
2015,09,15,12,04,13.70
2015,09,15,12,05,13.70
2015,09,15,12,06,13.70
2015,09,15,12,07,13.70
2015,09,15,12,08,13.70
2015,09,15,12,09,13.80
2015,09,15,12,10,13.80
2015,09,15,12,11,13.90
2015,09,15,12,12,14.00
2015,09,15,12,13,14.00
2015,09,15,12,14,14.10
2015,09,15,12,15,14.10
2015,09,15,12,16,14.10
2015,09,15,12,17,14.10
2015,09,15,12,18,14.10
2015,09,15,12,19,14.10
2015,09,15,12,20,14.10
2015,09,15,12,21,14.10
2015,09,15,12,22,14.10
2015,09,15,12,23,14.10
2015,09,15,12,24,14.10
2015,09,15,12,25,14.10
2015,09,15,12,26,14.10
2015,09,15,12,27,14.10
2015,09,15,12,28,14.10
2015,09,15,12,29,14.10
2015,09,15,12,30,14.10
2015,09,15,12,31,14.10
2015,09,15,12,32,14.10
2015,09,15,12,33,14.10
2015,09,15,12,34,14.10
2015,09,15,12,35,14.10
2015,09,15,12,36,14.10
2015,09,15,12,37,14.10
2015,09,15,12,38,14.10
2015,09,15,12,39,14.10
2015,09,15,12,40,14.00
2015,09,15,12,41,14.00
2015,09,15,12,42,14.00
2015,09,15,12,43,14.10
2015,09,15,12,44,14.10
2015,09,15,12,45,14.00
2015,09,15,12,46,14.00
2015,09,15,12,47,14.00
2015,09,15,12,48,14.00
2015,09,15,12,49,14.00
2015,09,15,12,50,14.00
2015,09,15,12,51,14.00
2015,09,15,12,52,14.10
2015,09,15,12,53,14.10
2015,09,15,12,54,14.10
2015,09,15,12,55,14.10
2015,09,15,12,56,14.10
2015,09,15,12,57,14.20
2015,09,15,12,58,14.20
2015,09,15,12,59,14.20
2015,09,15,13,00,14.20
2015,09,15,13,01,14.30
2015,09,15,13,02,14.30
2015,09,15,13,03,14.30
2015,09,15,13,04,14.30
2015,09,15,13,05,14.30
2015,09,15,13,06,14.30
2015,09,15,13,07,14.30
2015,09,15,13,08,14.30
2015,09,15,13,09,14.30
2015,09,15,13,10,14.30
2015,09,15,13,11,14.30
2015,09,15,13,12,14.30
2015,09,15,13,13,14.40
2015,09,15,13,14,14.40
2015,09,15,13,15,14.30
2015,09,15,13,16,14.30
2015,09,15,13,17,14.30
2015,09,15,13,18,14.30
2015,09,15,13,19,14.30
2015,09,15,13,20,14.30
2015,09,15,13,21,14.20
2015,09,15,13,22,14.20
2015,09,15,13,23,14.20
2015,09,15,13,24,14.20
2015,09,15,13,25,14.10
2015,09,15,13,26,14.10
2015,09,15,13,27,14.10
2015,09,15,13,28,14.00
2015,09,15,13,29,14.00
2015,09,15,13,30,14.00
2015,09,15,13,31,13.90
2015,09,15,13,32,13.90
2015,09,15,13,33,13.90
2015,09,15,13,34,13.90
2015,09,15,13,35,13.80
2015,09,15,13,36,13.90
2015,09,15,13,37,13.90
2015,09,15,13,38,13.90
2015,09,15,13,39,13.90
2015,09,15,13,40,13.90
2015,09,15,13,41,13.90
2015,09,15,13,42,13.90
2015,09,15,13,43,13.90
2015,09,15,13,44,13.90
2015,09,15,13,45,13.90
2015,09,15,13,46,13.90
2015,09,15,13,47,13.90
2015,09,15,13,48,13.90
2015,09,15,13,49,13.80
2015,09,15,13,50,13.80
2015,09,15,13,51,13.80
2015,09,15,13,52,13.80
2015,09,15,13,53,13.80
2015,09,15,13,54,13.70
2015,09,15,13,55,13.70
2015,09,15,13,56,13.70
2015,09,15,13,57,13.70
2015,09,15,13,58,13.70
2015,09,15,13,59,13.70
2015,09,15,14,00,13.70
2015,09,15,14,01,13.60
2015,09,15,14,02,13.60
2015,09,15,14,03,13.60
2015,09,15,14,04,13.60
2015,09,15,14,05,13.60
2015,09,15,14,06,13.60
2015,09,15,14,07,13.50
2015,09,15,14,08,13.50
2015,09,15,14,09,13.50
2015,09,15,14,10,13.50
2015,09,15,14,11,13.40
2015,09,15,14,12,13.40
2015,09,15,14,13,13.40
2015,09,15,14,14,13.40
2015,09,15,14,15,13.40
2015,09,15,14,16,13.40
2015,09,15,14,17,13.30
2015,09,15,14,18,13.30
2015,09,15,14,19,13.30
2015,09,15,14,20,13.30
2015,09,15,14,21,13.30
2015,09,15,14,22,13.30
2015,09,15,14,23,13.30
2015,09,15,14,24,13.30
2015,09,15,14,25,13.30
2015,09,15,14,26,13.30
2015,09,15,14,27,13.30
2015,09,15,14,28,13.30
2015,09,15,14,29,13.30
2015,09,15,14,30,13.30
2015,09,15,14,31,13.30
2015,09,15,14,32,13.30
2015,09,15,14,33,13.30
2015,09,15,14,34,13.30
2015,09,15,14,35,13.30
2015,09,15,14,36,13.40
2015,09,15,14,37,13.40
2015,09,15,14,38,13.50
2015,09,15,14,39,13.50
2015,09,15,14,40,13.50
2015,09,15,14,41,13.60
2015,09,15,14,42,13.60
2015,09,15,14,43,13.60
2015,09,15,14,44,13.60
2015,09,15,14,45,13.70
2015,09,15,14,46,13.70
2015,09,15,14,47,13.70
2015,09,15,14,48,13.70
2015,09,15,14,49,13.80
2015,09,15,14,50,13.80
2015,09,15,14,51,13.80
2015,09,15,14,52,13.90
2015,09,15,14,53,13.90
2015,09,15,14,54,14.00
2015,09,15,14,55,14.00
2015,09,15,14,56,14.10
2015,09,15,14,57,14.10
2015,09,15,14,58,14.10
2015,09,15,14,59,14.20
2015,09,15,15,00,14.20
2015,09,15,15,01,14.20
2015,09,15,15,02,14.30
2015,09,15,15,03,14.30
2015,09,15,15,04,14.40
2015,09,15,15,05,14.50
2015,09,15,15,06,14.60
2015,09,15,15,07,14.70
2015,09,15,15,08,14.70
2015,09,15,15,09,14.70
2015,09,15,15,10,14.70
2015,09,15,15,11,14.70
2015,09,15,15,12,14.70
2015,09,15,15,13,14.60
2015,09,15,15,14,14.50
2015,09,15,15,15,14.40
2015,09,15,15,16,14.30
2015,09,15,15,17,14.30
2015,09,15,15,18,14.20
2015,09,15,15,19,14.10
2015,09,15,15,20,14.10
2015,09,15,15,21,14.00
2015,09,15,15,22,14.00
2015,09,15,15,23,13.90
2015,09,15,15,24,13.90
2015,09,15,15,25,13.90
2015,09,15,15,26,13.90
2015,09,15,15,27,13.90
2015,09,15,15,28,13.90
2015,09,15,15,29,13.90
2015,09,15,15,30,13.90
2015,09,15,15,31,13.90
2015,09,15,15,32,13.90
2015,09,15,15,33,13.80
2015,09,15,15,34,13.80
2015,09,15,15,35,13.80
2015,09,15,15,36,13.80
2015,09,15,15,37,13.80
2015,09,15,15,38,13.80
2015,09,15,15,39,13.70
2015,09,15,15,40,13.70
2015,09,15,15,41,13.70
2015,09,15,15,42,13.80
2015,09,15,15,43,13.80
2015,09,15,15,44,13.80
2015,09,15,15,45,13.80
2015,09,15,15,46,13.80
2015,09,15,15,47,13.80
2015,09,15,15,48,13.70
2015,09,15,15,49,13.70
2015,09,15,15,50,13.70
2015,09,15,15,51,13.70
2015,09,15,15,52,13.70
2015,09,15,15,53,13.70
2015,09,15,15,54,13.70
2015,09,15,15,55,13.80
2015,09,15,15,56,13.80
2015,09,15,15,57,13.80
2015,09,15,15,58,13.70
2015,09,15,15,59,13.70
2015,09,15,16,00,13.70
2015,09,15,16,01,13.70
2015,09,15,16,02,13.60
2015,09,15,16,03,13.60
2015,09,15,16,04,13.50
2015,09,15,16,05,13.50
2015,09,15,16,06,13.50
2015,09,15,16,07,13.40
2015,09,15,16,08,13.40
2015,09,15,16,09,13.40
2015,09,15,16,10,13.40
2015,09,15,16,11,13.30
2015,09,15,16,12,13.30
2015,09,15,16,13,13.30
2015,09,15,16,14,13.20
2015,09,15,16,15,13.20
2015,09,15,16,16,13.20
2015,09,15,16,17,13.20
2015,09,15,16,18,13.10
2015,09,15,16,19,13.10
2015,09,15,16,20,13.00
2015,09,15,16,21,13.00
2015,09,15,16,22,13.00
2015,09,15,16,23,12.90
2015,09,15,16,24,12.90
2015,09,15,16,25,12.90
2015,09,15,16,26,12.90
2015,09,15,16,27,12.80
2015,09,15,16,28,12.80
2015,09,15,16,29,12.80
2015,09,15,16,30,12.80
2015,09,15,16,31,12.80
2015,09,15,16,32,12.80
2015,09,15,16,33,12.80
2015,09,15,16,34,12.80
2015,09,15,16,35,12.80
2015,09,15,16,36,12.80
2015,09,15,16,37,12.80
2015,09,15,16,38,12.80
2015,09,15,16,39,12.80
2015,09,15,16,40,12.80
2015,09,15,16,41,12.80
2015,09,15,16,42,12.80
2015,09,15,16,43,12.80
2015,09,15,16,44,12.80
2015,09,15,16,45,12.80
2015,09,15,16,46,12.80
2015,09,15,16,47,12.80
2015,09,15,16,48,12.80
2015,09,15,16,49,12.90
2015,09,15,16,50,12.90
2015,09,15,16,51,12.90
2015,09,15,16,52,12.90
2015,09,15,16,53,12.90
2015,09,15,16,54,12.90
2015,09,15,16,55,12.90
2015,09,15,16,56,12.90
2015,09,15,16,57,12.90
2015,09,15,16,58,12.90
2015,09,15,16,59,12.90
2015,09,15,17,00,12.90
2015,09,15,17,01,12.90
2015,09,15,17,02,13.00
2015,09,15,17,03,13.00
2015,09,15,17,04,13.00
2015,09,15,17,05,13.00
2015,09,15,17,06,13.00
2015,09,15,17,07,13.00
2015,09,15,17,08,13.10
2015,09,15,17,09,13.10
2015,09,15,17,10,13.10
2015,09,15,17,11,13.10
2015,09,15,17,12,13.10
2015,09,15,17,13,13.10
2015,09,15,17,14,13.10
2015,09,15,17,15,13.20
2015,09,15,17,16,13.20
2015,09,15,17,17,13.20
2015,09,15,17,18,13.20
2015,09,15,17,19,13.20
2015,09,15,17,20,13.20
2015,09,15,17,21,13.20
2015,09,15,17,22,13.20
2015,09,15,17,23,13.20
2015,09,15,17,24,13.20
2015,09,15,17,25,13.20
2015,09,15,17,26,13.20
2015,09,15,17,27,13.20
2015,09,15,17,28,13.20
2015,09,15,17,29,13.20
2015,09,15,17,30,13.20
2015,09,15,17,31,13.20
2015,09,15,17,32,13.30
2015,09,15,17,33,13.30
2015,09,15,17,34,13.30
2015,09,15,17,35,13.30
2015,09,15,17,36,13.30
2015,09,15,17,37,13.30
2015,09,15,17,38,13.30
2015,09,15,17,39,13.30
2015,09,15,17,40,13.30
2015,09,15,17,41,13.40
2015,09,15,17,42,13.40
2015,09,15,17,43,13.40
2015,09,15,17,44,13.40
2015,09,15,17,45,13.40
2015,09,15,17,46,13.40
2015,09,15,17,47,13.50